User: anonymous   Login
Location: Unspecified
(0.0000°N, 0.0000°E)
Time: 22:23:28
(UTC+00:00)
Language:

STARLINK-3592 - Orbit

View from above orbital plane
View from above orbital plane
View from above satellite
View from above satellite

Ground track
Ground track

The orbit is defined by the following mean orbital elements,

1 51801U          26145.32593421 +.00000000 +00000-0 +37358-3 0 00004
2 51801  53.2134   5.0869 0001340  97.1845 262.9300 15.08817991    06
Epoch (UTC): 25 May 2026 07:49:20
Eccentricity: 0.0001340
inclination: 53.2134°
perigee height: 539 km
apogee height: 541 km
right ascension of ascending node: 5.0869°
argument of perigee: 97.1845°
revolutions per day: 15.08817991
mean anomaly at epoch: 262.9300°

The dashed part of the orbit path shows where the satellite is in the earth's shadow,  

DLR